Weather History for K8D3 - June, 2013

Change the Weather History Date:

Monday, June 24, 2013

  Actual Average Record
Temperature  
Mean Temperature 70 °F 68 °F  
Max Temperature 82 °F 80 °F 104 °F (1988)
Min Temperature 57 °F 57 °F 42 °F (2004)
Degree Days  
Heating Degree Days 0 1  
Month to date heating degree days 69 57  
Since 1 June heating degree days 69 57  
Since 1 July heating degree days 9142 8278  
Cooling Degree Days 5 4  
Month to date cooling degree days 61 66  
Year to date cooling degree days 86 89  
Since 1 June cooling degree days 61 66  
Growing Degree Days 21 (Base 50)    
Moisture  
Dew Point 64 °F    
Average Humidity 79    
Maximum Humidity 100    
Minimum Humidity 58    
Precipitation  
Precipitation 0.00 in 0.11 in 1.53 in (1993)
Month to date precipitation 4.69 3.10  
Year to date precipitation 14.03 10.08  
Sea Level Pressure  
Sea Level Pressure 29.76 in    
Wind  
Wind Speed 8 mph (South)    
Max Wind Speed 20 mph    
Max Gust Speed 24 mph    
T = Trace of Precipitation, MM = Missing Value Source: NWS Daily Summary

Daily Weather History Graph

Daily Weather History Graph

Search for Another Location

Airport or City:

Trip Planner

Search our weather history database for the weather conditions in past years. The results will help you decide how hot, cold, wet, or windy it might be!

Date:

Astronomy

Jun. 24, 2013 Rise Set
Actual Time 5:39 AM CDT 9:21 PM CDT
Civil Twilight 5:01 AM CDT 9:59 PM CDT
Nautical Twilight 4:10 AM CDT 10:50 PM CDT
Astronomical Twilight 2:59 AM CDT 12:00 AM CDT
Moon 10:17 PM CDT (6/24) 7:14 AM CDT (6/24)
Length of Visible Light 16h 58m
Length of Day
15h 42m
Full, 98% of the Moon is Illuminated
Jun 24
Full
Jun 29
Last Quarter
Jul 8
New
Jul 15
First Quarter
Jul 22
Full

Hourly Weather History & Observations

Time (CDT) Temp. Heat Index Dew Point Humidity Pressure Visibility Wind Dir Wind Speed Gust Speed Precip Events Conditions
12:56 AM 61.0 °F - 57.9 °F 90% 29.82 in - SW 6.9 mph - N/A   Unknown
1:56 AM 60.1 °F - 57.0 °F 90% 29.81 in - SSW 5.8 mph - N/A   Unknown
2:56 AM 60.1 °F - 57.0 °F 90% 29.81 in - South 3.5 mph - N/A   Unknown
3:56 AM 60.1 °F - 57.0 °F 90% 29.80 in - SW 3.5 mph - N/A   Unknown
4:56 AM 61.0 °F - 57.0 °F 87% 29.80 in - South 5.8 mph - N/A   Unknown
5:56 AM 60.1 °F - 57.0 °F 90% 29.80 in - South 6.9 mph - N/A   Unknown
6:56 AM 63.0 °F - 59.0 °F 87% 29.80 in - SSE 3.5 mph - N/A   Unknown
7:56 AM 68.0 °F - 62.1 °F 81% 29.78 in - SW 4.6 mph - N/A   Unknown
8:56 AM 69.1 °F - 64.0 °F 84% 29.79 in - SSE 9.2 mph - N/A   Unknown
9:56 AM 71.1 °F - 64.0 °F 78% 29.81 in - South 11.5 mph - N/A   Unknown
10:56 AM 73.9 °F - 64.9 °F 73% 29.77 in - SSE 6.9 mph - N/A   Unknown
11:56 AM 75.9 °F - 66.0 °F 71% 29.76 in - South 12.7 mph - N/A   Unknown
12:56 PM 77.0 °F - 66.0 °F 69% 29.75 in - South 10.4 mph - N/A   Unknown
1:56 PM 79.0 °F - 66.9 °F 66% 29.73 in - SSE 11.5 mph - N/A   Unknown
2:56 PM 82.0 °F 84.1 °F 66.0 °F 58% 29.72 in - SSE 13.8 mph - N/A   Unknown
3:56 PM 81.0 °F 83.3 °F 66.9 °F 62% 29.72 in - South 11.5 mph - N/A   Unknown
4:56 PM 79.0 °F - 66.9 °F 66% 29.72 in - South 15.0 mph 21.9 mph N/A   Unknown
5:56 PM 80.1 °F 82.7 °F 68.0 °F 67% 29.71 in - SSE 15.0 mph - N/A   Unknown
6:56 PM 79.0 °F - 66.0 °F 64% 29.70 in - SSE 12.7 mph - N/A   Unknown
7:56 PM 78.1 °F - 68.0 °F 71% 29.70 in - SSE 9.2 mph - N/A   Unknown
8:56 PM 73.0 °F - 68.0 °F 84% 29.69 in - ESE 5.8 mph - N/A   Unknown
9:56 PM 71.1 °F - 66.9 °F 87% 29.72 in - SSE 5.8 mph - N/A   Unknown
10:56 PM 70.0 °F - 66.0 °F 87% 29.71 in - SSE 8.1 mph - N/A   Unknown
11:56 PM 66.9 °F - 66.0 °F 97% 29.71 in - SSW 3.5 mph - N/A   Unknown